This demonstration page uses our WeatherBlox Daily Observations layout. Learn more.

Hourly Observations for January 8, 2019

Temp ( °F °C ) Dew Point ( °F °C ) Humidity (%) Winds ( mph kmh ) Pressure ( in mb ) Visibility ( mi km ) Precip ( " mm )
12:15 am 00:15 Clear 39 3.8 27 -2.7 63 63 NW 21 33 30.06 1018 10 16.09344 0 0
12:35 am 00:35 Clear 38 3.2 27 -2.6 66 66 WNW 16 26 30.12 1020 10 16.09344 0 0
12:55 am 00:55 Clear 36 2.4 28 -2.5 70 70 WNW 17 28 30.12 1020 10 16.09344 0 0
1:15 am 01:15 Clear 37 2.6 27 -3 67 67 NW 18 30 30.12 1020 10 16.09344 0 0
1:35 am 01:35 Clear 37 2.5 26 -3.1 67 67 NW 16 26 30.12 1020 10 16.09344 0 0
1:55 am 01:55 Clear 37 2.5 26 -3.5 65 65 WNW 15 24 30.15 1021 10 16.09344 0 0
2:15 am 02:15 Clear 35 1.5 26 -3.3 71 71 NW 12 19 30.21 1023 10 16.09344 0 0
2:35 am 02:35 Clear 34 1.2 26 -3.6 71 71 NW 10 17 30.21 1023 10 16.09344 0 0
2:55 am 02:55 Clear 34 1 25 -3.7 71 71 NW 13 20 30.21 1023 10 16.09344 0 0
3:15 am 03:15 Clear 34 1 25 -4 70 70 NW 9 15 30.24 1024 10 16.09344 0 0
3:35 am 03:35 Clear 32 0 25 -4.1 74 74 WNW 9 15 30.24 1024 10 16.09344 0 0
3:55 am 03:55 Clear 32 -0.1 25 -4.1 75 75 WNW 9 15 30.24 1024 10 16.09344 0 0
4:15 am 04:15 Clear 31 -0.4 25 -4 77 77 WNW 10 17 30.27 1025 10 16.09344 0 0
4:35 am 04:35 Clear 33 0.3 24 -4.4 71 71 WNW 12 19 30.27 1025 10 16.09344 0 0
4:55 am 04:55 Clear 32 0 24 -4.6 71 71 W 10 17 30.27 1025 10 16.09344 0 0
5:15 am 05:15 Clear 33 0.4 24 -4.7 69 69 WNW 13 20 30.3 1026 10 16.09344 0 0
5:35 am 05:35 Clear 33 0.6 23 -5 66 66 WNW 12 19 30.3 1026 10 16.09344 0 0
5:55 am 05:55 Clear 32 0.1 24 -4.7 70 70 WNW 9 15 30.3 1026 10 16.09344 0 0
6:15 am 06:15 Clear 31 -0.8 23 -5.1 73 73 W 6 9 30.33 1027 10 16.09344 0 0
6:35 am 06:35 Clear 29 -1.7 23 -5.1 78 78 W 9 15 30.36 1028 10 16.09344 0 0
6:55 am 06:55 Clear 30 -1.2 23 -5 76 76 W 8 13 30.36 1028 10 16.09344 0 0
7:15 am 07:15 Clear 30 -1.1 23 -5 75 75 W 10 17 30.39 1029 10 16.09344 0 0
7:35 am 07:35 Clear 31 -0.6 22 -5.3 71 71 WNW 12 19 30.39 1029 10 16.09344 0 0
7:55 am 07:55 Clear 31 -0.3 22 -5.5 68 68 NW 12 19 30.39 1029 10 16.09344 0 0
8:15 am 08:15 Sunny 31 -0.6 22 -5.5 70 70 WNW 12 19 30.39 1029 10 16.09344 0 0
8:35 am 08:35 Sunny 31 -0.5 22 -5.5 69 69 WNW 12 19 30.42 1030 10 16.09344 0 0
8:55 am 08:55 Sunny 32 -0.2 22 -5.3 69 69 WNW 13 20 30.42 1030 10 16.09344 0 0
9:15 am 09:15 Sunny 33 0.4 23 -5.2 66 66 WNW 13 20 30.45 1031 10 16.09344 0 0
9:35 am 09:35 Sunny 34 1.1 23 -5.1 64 64 NW 12 19 30.42 1030 10 16.09344 0 0
9:55 am 09:55 Sunny 36 2.2 22 -5.3 58 58 WNW 12 19 30.45 1031 10 16.09344 0 0
10:15 am 10:15 Sunny 37 2.5 22 -5.3 57 57 WNW 15 24 30.45 1031 10 16.09344 0 0
10:35 am 10:35 Sunny 37 2.7 22 -5.6 55 55 WNW 13 20 30.48 1032 10 16.09344 0 0
10:55 am 10:55 Sunny 38 3.3 22 -5.3 54 54 WNW 14 22 30.48 1032 10 16.09344 0 0
11:15 am 11:15 Sunny 39 3.9 22 -5.7 50 50 WNW 14 22 30.48 1032 10 16.09344 0 0
11:35 am 11:35 Sunny 40 4.3 22 -5.5 49 49 WNW 14 22 30.45 1031 10 16.09344 0 0
11:55 am 11:55 Sunny 40 4.7 22 -5.5 48 48 WNW 13 20 30.45 1031 10 16.09344 0 0
12:15 pm 12:15 Sunny 42 5.3 20 -6.4 43 43 NW 16 26 30.45 1031 10 16.09344 0 0
12:35 pm 12:35 Sunny 42 5.5 19 -7 40 40 NW 18 30 30.45 1031 10 16.09344 0 0
12:55 pm 12:55 Sunny 42 5.6 20 -6.7 41 41 NW 18 30 30.42 1030 10 16.09344 0 0
1:15 pm 13:15 Sunny 42 5.6 20 -6.9 41 41 NW 17 28 30.42 1030 10 16.09344 0 0
1:35 pm 13:35 Sunny 42 5.7 19 -7.1 40 40 NW 15 24 30.45 1031 10 16.09344 0 0
1:55 pm 13:55 Sunny 42 5.8 18 -7.8 37 37 NW 16 26 30.45 1031 10 16.09344 0 0
2:15 pm 14:15 Sunny 43 6.1 18 -7.7 37 37 NW 18 30 30.45 1031 10 16.09344 0 0
2:35 pm 14:35 Sunny 43 6 17 -8.1 36 36 NW 17 28 30.45 1031 10 16.09344 0 0
2:55 pm 14:55 Sunny 43 6.1 19 -7.4 38 38 NW 13 20 30.45 1031 10 16.09344 0 0
3:15 pm 15:15 Sunny 43 6.2 19 -7.4 37 37 NW 14 22 30.45 1031 10 16.09344 0 0
3:35 pm 15:35 Sunny 43 6 19 -7.3 38 38 NNW 12 19 30.45 1031 10 16.09344 0 0
3:55 pm 15:55 Sunny 43 6 20 -6.4 41 41 NW 8 13 30.45 1031 10 16.09344 0 0
4:15 pm 16:15 Sunny 42 5.5 19 -7 40 40 NNW 12 19 30.45 1031 10 16.09344 0 0
4:35 pm 16:35 Sunny 41 4.8 22 -5.7 47 47 NNW 9 15 30.45 1031 10 16.09344 0 0
4:55 pm 16:55 Sunny 39 3.8 23 -4.9 53 53 NNW 7 11 30.48 1032 10 16.09344 0 0
5:15 pm 17:15 Sunny 36 2.4 24 -4.7 60 60 NW 6 9 30.48 1032 10 16.09344 0 0
5:35 pm 17:35 Clear 33 0.8 24 -4.6 68 68 NNW 8 13 30.5 1033 10 16.09344 0 0
5:55 pm 17:55 Clear 33 0.3 22 -5.7 64 64 NW 6 9 30.5 1033 10 16.09344 0 0
6:15 pm 18:15 Clear 32 0.2 22 -5.4 66 66 W 6 9 30.5 1033 10 16.09344 0 0
6:35 pm 18:35 Clear 32 0.2 21 -5.9 64 64 W 7 11 30.5 1033 10 16.09344 0 0
6:55 pm 18:55 Clear 31 -0.7 22 -5.5 70 70 W 7 11 30.53 1034 10 16.09344 0 0
7:15 pm 19:15 Clear 31 -0.4 22 -5.5 69 69 WNW 7 11 30.53 1034 10 16.09344 0 0
7:35 pm 19:35 Clear 31 -0.5 22 -5.5 69 69 NW 9 15 30.53 1034 10 16.09344 0 0
7:55 pm 19:55 Clear 28 -2.3 22 -5.8 77 77 WSW 5 7 30.56 1035 10 16.09344 0 0
8:15 pm 20:15 Clear 28 -2.2 21 -6.1 75 75 W 6 9 30.56 1035 10 16.09344 0 0
8:35 pm 20:35 Clear 27 -2.6 22 -5.7 80 80 NNW 5 7 30.56 1035 10 16.09344 0 0
8:55 pm 20:55 Clear 28 -2.5 21 -6 77 77 NW 6 9 30.59 1036 10 16.09344 0 0
9:15 pm 21:15 Clear 27 -3 21 -6 80 80 WNW 8 13 30.59 1036 10 16.09344 0 0
9:35 pm 21:35 Clear 25 -3.7 21 -6 84 84 WNW 5 7 30.59 1036 10 16.09344 0 0
9:55 pm 21:55 Clear 26 -3.5 21 -6.1 82 82 WNW 6 9 30.59 1036 10 16.09344 0 0
10:15 pm 22:15 Clear 26 -3.2 21 -6.1 81 81 WNW 5 7 30.62 1037 10 16.09344 0 0
10:35 pm 22:35 Clear 26 -3.6 20 -6.4 81 81 W 5 7 30.62 1037 10 16.09344 0 0
10:55 pm 22:55 Clear 26 -3.6 21 -6 84 84 WNW 5 7 30.62 1037 10 16.09344 0 0
11:15 pm 23:15 Clear 25 -3.9 20 -6.5 82 82 W 5 7 30.65 1038 10 16.09344 0 0
11:35 pm 23:35 Clear 24 -4.2 20 -6.9 82 82 W 8 13 30.65 1038 10 16.09344 0 0
11:55 pm 23:55 Clear 25 -3.8 20 -6.7 81 81 NW 5 7 30.62 1037 10 16.09344 0 0

Powered by AerisWeather